Location: Sungai Dangang
(2.7500°N, 113.8333°E)
Time: 01:43:26
(UTC+00:00)

Ariane H10+ - Pass Details

Date: 29 September 2021
Orbit: 237 x 7755 km, 6.8° (Epoch: 21 October)

Event Time Altitude Azimuth Distance (km) Brightness Sun altitude
Exits shadow 18:48:54 64° 142° (SE) 3,009 4.8 -51.5°
Drops below altitude 10° 19:21:37 10° 89° (E) 10,270 8.3 -43.4°
Sets 19:34:28 0° 87° (E) 12,223 9.0 -40.1°
